Glencoe, MN

2:32 PM CDT on September 20, 2017 (GMT -0500)
Glencoe Municipal

Weather History for KGYL - December, 2013

Change the Weather History Date:

Monday, December 9, 2013

  Actual Average (KHCD) Record (KHCD)
Temperature  
Mean Temperature 1 °F -  
Max Temperature 7 °F 27 °F 51 °F (1990)
Min Temperature -5 °F 11 °F -17 °F (1958)
Degree Days  
Heating Degree Days 64    
Moisture  
Dew Point -8 °F    
Average Humidity 71    
Maximum Humidity 82    
Minimum Humidity 60    
Precipitation  
Precipitation 0.00 in - - ()
Sea Level Pressure  
Sea Level Pressure 30.02 in    
Wind  
Wind Speed 7 mph (SW)    
Max Wind Speed 20 mph    
Max Gust Speed 25 mph    
Visibility 9 miles    
Events Snow    
Averages and records for this station are not official NWS values.
T = Trace of Precipitation, MM = Missing Value Source: NWS Daily Summary

Daily Weather History Graph

Daily Weather History Graph

Search for Another Location

Airport or City:

Trip Planner

Search our weather history database for the weather conditions in past years. The results will help you decide how hot, cold, wet, or windy it might be!

Date:

Astronomy

Dec. 09, 2013 Rise Set
Actual Time 7:42 AM CST 4:35 PM CST
Civil Twilight 7:08 AM CST 5:08 PM CST
Nautical Twilight 6:31 AM CST 5:45 PM CST
Astronomical Twilight 5:56 AM CST 6:21 PM CST
Moon 12:20 PM CST (12/9) No Moon Set
Length of Visible Light 10h 00m
Length of Day
8h 53m
Waxing Crescent, 51% of the Moon is Illuminated
Dec 9
Waxing Crescent
Dec 17
Full
Dec 25
Last Quarter
Jan 1
New
Jan 7
First Quarter

Hourly Weather History & Observations

Time (CST) Temp. Windchill Dew Point Humidity Pressure Visibility Wind Dir Wind Speed Gust Speed Precip Events Conditions
12:13 AM 7.3 °F - 3.0 °F 82% 30.00 in 4.0 mi Calm Calm - N/A Snow Light Snow
12:33 AM 6.8 °F -0.1 °F 2.3 °F 82% 30.01 in 5.0 mi WSW 3.5 mph - N/A Snow Light Snow
12:53 AM 6.1 °F -0.9 °F 1.8 °F 82% 30.00 in 7.0 mi WSW 3.5 mph - N/A Snow Light Snow
1:13 AM 5.2 °F -1.9 °F 0.7 °F 82% 30.00 in 7.0 mi WSW 3.5 mph - N/A Snow Light Snow
1:33 AM 4.5 °F - -0.4 °F 80% 30.00 in 10.0 mi Calm Calm - N/A   Clear
1:53 AM 2.5 °F -5.0 °F -2.6 °F 79% 29.99 in 10.0 mi WSW 3.5 mph - N/A   Clear
2:13 AM 2.8 °F -4.6 °F -2.2 °F 79% 30.00 in 10.0 mi WSW 3.5 mph - N/A   Clear
2:33 AM 2.8 °F -8.2 °F -2.0 °F 80% 30.00 in 10.0 mi West 5.8 mph - N/A   Clear
2:53 AM 1.8 °F -10.8 °F -3.5 °F 79% 30.00 in 10.0 mi West 6.9 mph - N/A   Clear
3:13 AM 1.6 °F -8.0 °F -3.5 °F 79% 29.99 in 10.0 mi West 4.6 mph - N/A   Clear
3:33 AM 0.7 °F -10.7 °F -4.4 °F 79% 29.99 in 10.0 mi West 5.8 mph - N/A   Clear
3:53 AM 0.9 °F -11.9 °F -4.2 °F 79% 30.00 in 10.0 mi West 6.9 mph - N/A   Clear
4:13 AM 0.1 °F -9.7 °F -5.1 °F 79% 29.99 in 10.0 mi WSW 4.6 mph - N/A   Clear
4:33 AM -0.6 °F -8.5 °F -5.8 °F 79% 29.99 in 10.0 mi WSW 3.5 mph - N/A   Clear
4:53 AM -1.5 °F -13.3 °F -6.7 °F 78% 29.99 in 10.0 mi WSW 5.8 mph - N/A   Clear
5:13 AM -1.7 °F -14.9 °F -6.7 °F 79% 30.00 in 10.0 mi West 6.9 mph - N/A   Clear
5:33 AM -1.7 °F -11.8 °F -6.9 °F 78% 30.00 in 10.0 mi WSW 4.6 mph - N/A   Clear
5:53 AM -2.4 °F -17.1 °F -7.8 °F 78% 30.00 in 10.0 mi West 8.1 mph - N/A   Clear
6:13 AM -3.1 °F -20.1 °F -8.5 °F 78% 30.01 in 7.0 mi West 10.4 mph - N/A   Mostly Cloudy
6:33 AM -3.3 °F -21.2 °F -8.7 °F 78% 30.02 in 10.0 mi West 11.5 mph - N/A   Mostly Cloudy
6:53 AM -4.0 °F -20.2 °F -9.6 °F 77% 30.04 in 10.0 mi West 9.2 mph - N/A   Mostly Cloudy
7:13 AM -4.4 °F -22.6 °F -10.3 °F 76% 30.05 in 10.0 mi West 11.5 mph - N/A   Overcast
7:33 AM -4.9 °F -24.9 °F -10.7 °F 76% 30.05 in 10.0 mi West 13.8 mph 17.3 mph N/A   Mostly Cloudy
7:53 AM -5.1 °F -25.1 °F -11.0 °F 76% 30.05 in 10.0 mi West 13.8 mph 23.0 mph N/A   Clear
8:13 AM -5.3 °F -25.4 °F -11.4 °F 75% 30.06 in 10.0 mi West 13.8 mph 19.6 mph N/A   Clear
8:33 AM -5.8 °F -25.2 °F -12.3 °F 74% 30.07 in 10.0 mi West 12.7 mph 20.7 mph N/A   Clear
8:53 AM -5.3 °F -26.8 °F -12.1 °F 72% 30.07 in 10.0 mi West 16.1 mph 20.7 mph N/A   Clear
9:13 AM -4.9 °F -24.1 °F -11.9 °F 72% 30.08 in 10.0 mi West 12.7 mph - N/A   Clear
9:33 AM -4.4 °F -21.6 °F -12.3 °F 69% 30.09 in 7.0 mi West 10.4 mph 20.7 mph N/A   Mostly Cloudy
9:53 AM -4.2 °F -22.3 °F -12.3 °F 68% 30.10 in 10.0 mi West 11.5 mph 21.9 mph N/A   Overcast
10:13 AM -3.6 °F -23.3 °F -12.6 °F 65% 30.10 in 7.0 mi West 13.8 mph 21.9 mph N/A   Overcast
10:34 AM -3.3 °F -24.9 °F -12.1 °F 66% 30.10 in 7.0 mi West 17.3 mph 20.7 mph N/A   Overcast
10:53 AM -3.1 °F -23.3 °F -12.1 °F 65% 30.11 in 7.0 mi West 15.0 mph 21.9 mph N/A   Overcast
11:13 AM -2.4 °F -24.3 °F -12.1 °F 63% 30.10 in 7.0 mi West 18.4 mph 23.0 mph N/A   Overcast
11:34 AM -2.2 °F -22.2 °F -11.6 °F 64% 30.10 in 7.0 mi West 15.0 mph - N/A   Overcast
11:53 AM -1.8 °F -22.4 °F -11.2 °F 64% 30.09 in 5.0 mi West 16.1 mph 23.0 mph N/A   Haze
12:13 PM -1.3 °F -23.5 °F -11.0 °F 63% 30.09 in 5.0 mi West 19.6 mph 25.3 mph N/A   Haze
12:34 PM -1.3 °F -21.0 °F -11.0 °F 63% 30.09 in 5.0 mi West 15.0 mph 25.3 mph N/A   Haze
12:53 PM -0.9 °F -22.4 °F -10.7 °F 63% 30.09 in 7.0 mi West 18.4 mph 21.9 mph N/A   Overcast
1:13 PM -0.6 °F -19.4 °F -10.5 °F 63% 30.09 in 7.0 mi West 13.8 mph 21.9 mph N/A   Overcast
1:34 PM -0.4 °F -19.2 °F -10.5 °F 62% 30.09 in 10.0 mi West 13.8 mph 19.6 mph N/A   Mostly Cloudy
1:53 PM -0.0 °F -20.1 °F -10.5 °F 61% 30.09 in 10.0 mi West 16.1 mph 19.6 mph N/A   Scattered Clouds
2:13 PM 0.1 °F -19.2 °F -10.5 °F 61% 30.08 in 10.0 mi West 15.0 mph 19.6 mph N/A   Scattered Clouds
2:34 PM 0.5 °F -13.6 °F -10.3 °F 60% 30.08 in 10.0 mi WSW 8.1 mph 17.3 mph N/A   Scattered Clouds
2:53 PM 0.5 °F -13.6 °F -10.1 °F 61% 30.09 in 10.0 mi WSW 8.1 mph - N/A   Clear
3:13 PM 0.5 °F -12.3 °F -9.9 °F 62% 30.07 in 10.0 mi WSW 6.9 mph - N/A   Clear
3:34 PM 0.1 °F -12.8 °F -9.8 °F 63% 30.07 in 10.0 mi SSW 6.9 mph - N/A   Clear
3:53 PM -0.4 °F -13.4 °F -9.8 °F 65% 30.07 in 10.0 mi SW 6.9 mph - N/A   Clear
4:13 PM -0.6 °F -8.5 °F -9.8 °F 65% 30.08 in 10.0 mi SW 3.5 mph - N/A   Clear
4:34 PM -2.0 °F -12.2 °F -10.5 °F 67% 30.08 in 10.0 mi SSW 4.6 mph - N/A   Clear
4:53 PM -1.8 °F -13.7 °F -9.8 °F 69% 30.08 in 10.0 mi SSW 5.8 mph - N/A   Clear
5:13 PM -3.1 °F -16.7 °F -11.2 °F 68% 30.07 in 10.0 mi SSW 6.9 mph - N/A   Clear
5:33 PM -4.0 °F -19.0 °F -11.9 °F 69% 30.06 in 10.0 mi South 8.1 mph - N/A   Clear
5:53 PM -4.0 °F -19.0 °F -11.4 °F 71% 30.06 in 10.0 mi South 8.1 mph - N/A   Clear
6:13 PM -4.4 °F -19.5 °F -12.1 °F 69% 30.04 in 10.0 mi South 8.1 mph - N/A   Clear
6:33 PM -4.0 °F -17.8 °F -11.7 °F 69% 30.03 in 10.0 mi South 6.9 mph - N/A   Clear
6:53 PM -4.0 °F -17.8 °F -11.7 °F 69% 30.03 in 10.0 mi South 6.9 mph - N/A   Clear
7:13 PM -3.8 °F -16.1 °F -11.4 °F 70% 30.02 in 10.0 mi South 5.8 mph - N/A   Clear
7:33 PM -3.3 °F -16.9 °F -11.2 °F 69% 30.01 in 10.0 mi South 6.9 mph - N/A   Scattered Clouds
7:54 PM -2.9 °F -16.5 °F -11.0 °F 68% 30.00 in 10.0 mi South 6.9 mph - N/A   Mostly Cloudy
8:13 PM -3.3 °F -18.2 °F -11.2 °F 69% 29.99 in 10.0 mi South 8.1 mph - N/A   Scattered Clouds
8:33 PM -3.5 °F -15.7 °F -10.7 °F 71% 29.98 in 10.0 mi South 5.8 mph - N/A   Scattered Clouds
8:53 PM -3.1 °F -16.7 °F -10.3 °F 71% 29.96 in 10.0 mi South 6.9 mph - N/A   Scattered Clouds
9:13 PM -2.6 °F -14.6 °F -9.9 °F 71% 29.94 in 10.0 mi South 5.8 mph - N/A   Clear
9:33 PM -1.3 °F -14.5 °F -8.5 °F 72% 29.93 in 10.0 mi SSE 6.9 mph - N/A   Scattered Clouds
9:53 PM -0.4 °F -15.7 °F -7.8 °F 71% 29.91 in 10.0 mi SSE 9.2 mph - N/A   Mostly Cloudy
10:13 PM 1.8 °F -13.1 °F -6.2 °F 69% 29.88 in 10.0 mi SSE 9.2 mph - N/A   Overcast
10:33 PM 2.5 °F -14.0 °F -5.3 °F 70% 29.86 in 10.0 mi SSE 11.5 mph - N/A   Overcast
10:53 PM 3.2 °F -11.3 °F -4.5 °F 70% 29.84 in 10.0 mi South 9.2 mph 16.1 mph N/A   Overcast
11:13 PM 3.7 °F -9.6 °F -4.0 °F 70% 29.83 in 10.0 mi South 8.1 mph 19.6 mph N/A   Overcast
11:33 PM 4.6 °F -9.5 °F -2.6 °F 72% 29.82 in 2.5 mi South 9.2 mph - N/A Snow Light Snow
11:53 PM 5.4 °F -9.6 °F -0.9 °F 75% 29.81 in 1.5 mi South 10.4 mph - N/A Snow Light Snow